DW7653 Weather Reports


time (UTC)temp
F
wind
direction
speed
knots
gust
knots
rain 1hr
in
rain 24hr
in
rain mn
in
humidity
%
barometer
mb
20260508044600 50 360 0.0 0.0 0.00 0.51 0.00 22 1013.4
20260508043104 51 360 0.0 0.0 0.00 0.51 0.00 22 1013.2
20260508041601 51 360 0.0 0.0 0.00 0.51 0.00 21 1013.1
20260508040053 51 360 0.0 0.0 0.00 0.51 0.00 20 1012.9
20260508034549 51 360 0.0 0.0 0.00 0.53 0.51 20 1012.9
20260508033044 51 360 0.0 0.0 0.00 0.53 0.51 20 1012.6
20260508031541 52 360 0.0 0.0 0.00 0.53 0.51 20 1012.8
20260508030041 52 360 0.0 0.0 0.00 0.53 0.51 20 1012.8
20260508024531 52 360 0.0 0.0 0.00 0.53 0.51 20 1012.3
20260508023027 52 360 0.0 0.0 0.00 0.53 0.51 21 1012.3
20260508021522 52 360 0.0 0.0 0.00 0.53 0.51 21 1012.1
20260508020027 53 360 0.0 0.0 0.00 0.53 0.51 20 1012.1
20260508014514 53 360 0.0 0.0 0.00 0.53 0.51 19 1011.8
20260508013009 53 360 0.0 0.0 0.00 0.53 0.51 18 1011.3
20260508011504 53 360 0.0 0.0 0.00 0.53 0.51 17 1011.2
20260508010000 53 360 0.0 0.0 0.00 0.53 0.51 17 1011.3
20260508004556 53 360 0.0 0.0 0.00 0.53 0.51 17 1011.1
20260508003052 53 360 0.0 0.0 0.00 0.53 0.51 18 1011.1
20260508001610 53 360 0.0 0.0 0.00 0.53 0.51 18 1010.8
20260508000047 53 360 0.0 0.0 0.00 0.53 0.51 18 1010.7
20260507234539 53 360 0.0 0.0 0.00 0.53 0.51 17 1010.6
20260507233034 53 360 0.0 0.0 0.00 0.53 0.51 17 1010.3
20260507231536 54 360 0.0 0.0 0.00 0.53 0.51 17 1010.0
20260507230027 54 360 0.0 0.0 0.00 0.53 0.51 17 1010.0
20260507224531 54 360 0.0 0.0 0.00 0.53 0.51 16 1009.8
20260507223017 54 360 0.0 0.0 0.00 0.53 0.51 16 1009.4
20260507221513 54 360 0.0 0.0 0.00 0.53 0.51 16 1009.4
20260507220016 54 360 0.0 0.0 0.00 0.53 0.51 15 1009.7
20260507214503 54 360 0.0 0.0 0.00 0.53 0.51 15 1009.6
20260507213059 54 360 0.0 0.0 0.00 0.53 0.51 15 1009.5
20260507211555 54 360 0.0 0.0 0.00 0.53 0.51 16 1009.7
20260507210052 54 360 0.0 0.0 0.00 0.53 0.51 17 1009.2
20260507204552 54 360 0.0 0.0 0.00 0.53 0.51 18 1009.3
20260507203041 54 360 0.0 0.0 0.00 0.53 0.51 18 1009.1
20260507201542 55 360 0.0 0.0 0.00 0.53 0.51 17 1009.3
20260507200033 55 360 0.0 0.0 0.02 0.53 0.51 15 1009.1
20260507194528 55 360 0.0 0.0 0.03 0.53 0.51 14 1009.2
20260507193025 56 360 0.0 0.0 0.06 0.53 0.51 14 1009.2
20260507191520 56 360 0.0 0.0 0.10 0.53 0.51 14 1009.3
20260507190017 56 360 0.0 0.0 0.11 0.51 0.49 15 1009.2
20260507184511 56 360 0.0 0.0 0.10 0.50 0.48 16 1009.0
20260507183006 56 360 0.0 0.0 0.07 0.47 0.45 18 1009.3
20260507181501 56 360 0.0 0.0 0.03 0.43 0.41 19 1009.2
20260507180058 56 360 0.0 0.0 0.00 0.40 0.38 22 1009.2
20260507174557 56 360 0.0 0.0 0.01 0.41 0.38 24 1009.0
20260507173049 57 360 0.0 0.0 0.01 0.41 0.38 26 1009.5
20260507171545 57 360 0.0 0.0 0.02 0.41 0.38 28 1008.8
20260507170046 58 360 0.0 0.0 0.03 0.41 0.38 30 1008.6
20260507164535 60 360 0.0 0.0 0.03 0.40 0.37 30 1008.5
20260507163031 62 360 0.0 0.0 0.03 0.40 0.37 14 1008.6
20260507161528 63 360 0.0 0.0 0.03 0.39 0.36 1 1008.7
20260507160026 64 360 0.0 0.0 0.05 0.38 0.35 100 1009.2
20260507154518 64 360 0.0 0.0 0.05 0.37 0.34 100 1009.3
20260507153018 64 360 0.0 0.0 0.06 0.37 0.34 100 1008.7
20260507151510 64 360 0.0 0.0 0.05 0.35 0.32 100 1008.6
20260507150007 64 360 0.0 0.0 0.04 0.33 0.30 100 1009.0
20260507144502 64 360 0.0 0.0 0.04 0.32 0.28 100 1008.8
20260507143056 64 360 0.0 0.0 0.04 0.31 0.28 100 1008.7
20260507141554 64 360 0.0 0.0 0.05 0.30 0.27 100 1008.5
20260507140051 64 360 0.0 0.0 0.05 0.28 0.26 1008.9
20260507134544 64 360 0.0 0.0 0.06 0.28 0.25 100 1009.2
20260507133038 64 360 0.0 0.0 0.05 0.26 0.23 100 1009.6
20260507131551 63 360 0.0 0.0 0.04 0.25 0.22 2 1009.7
20260507130030 63 360 0.0 0.0 0.03 0.24 0.21 2 1009.3
20260507124525 63 360 0.0 0.0 0.01 0.22 0.19 3 1009.2
20260507123021 63 360 0.0 0.0 0.00 0.21 0.18 3 1009.4
20260507121517 63 360 0.0 0.0 0.00 0.21 0.18 4 1009.3
20260507120024 63 360 0.0 0.0 0.04 0.21 0.18 4 1009.2
20260507114508 63 360 0.0 0.0 0.05 0.21 0.18 5 1009.4
20260507113005 63 360 0.0 0.0 0.06 0.21 0.18 5 1009.8
20260507111607 63 360 0.0 0.0 0.06 0.21 0.18 6 1009.6
20260507104551 63 360 0.0 0.0 0.04 0.16 0.13 6 1009.4
20260507103046 63 360 0.0 0.0 0.03 0.15 0.12 7 1009.2
20260507101542 63 360 0.0 0.0 0.03 0.15 0.12 7 1009.5
20260507100042 63 360 0.0 0.0 0.02 0.13 0.10 8 1009.2
20260507094540 63 360 0.0 0.0 0.01 0.12 0.09 8 1009.4
20260507093043 63 360 0.0 0.0 0.02 0.12 0.09 8 1009.4
20260507091538 63 360 0.0 0.0 0.02 0.12 0.09 9 1009.1
20260507090038 63 360 0.0 0.0 0.01 0.11 0.08 10 1009.2
20260507084533 63 360 0.0 0.0 0.02 0.11 0.08 10 1009.6
20260507083032 64 360 0.0 0.0 0.01 0.10 0.07 10 1009.7
20260507081541 64 360 0.0 0.0 0.01 0.10 0.07 11 1009.7
20260507080030 64 360 0.0 0.0 0.01 0.10 0.07 11 1009.7
20260507074546 64 360 0.0 0.0 0.00 0.09 0.06 12 1009.9
20260507073028 64 360 0.0 0.0 0.01 0.09 0.06 12 1009.8
20260507071526 64 360 0.0 0.0 0.01 0.09 0.06 13 1010.1
20260507070024 64 360 0.0 0.0 0.01 0.09 0.06 13 1010.0
20260507064521 64 360 0.0 0.0 0.01 0.09 0.06 14 1010.2
20260507063025 64 360 0.0 0.0 0.00 0.08 0.05 15 1011.2
20260507061519 64 360 0.0 0.0 0.00 0.08 0.05 16 1011.0
20260507060018 64 360 0.0 0.0 0.00 0.08 0.05 19 1010.7
20260507054519 64 360 0.0 0.0 0.00 0.08 0.05 20 1010.8
20260507053015 65 360 0.0 0.0 0.01 0.08 0.05 21 1010.7
20260507051514 65 360 0.0 0.0 0.04 0.08 0.05 23 1011.1
20260507050024 65 360 0.0 0.0 0.05 0.08 0.05 25 1011.1